Orbital Elements at Epoch 2459200.5 (2020-Dec-17.0) TDB
Reference: JPL 33 (heliocentric ecliptic J2000)
Element | Value | Uncertainty (1-sigma) | Units |
e | .1100042681191684 | 3.0391e-08 | |
a | 2.281343347806336 | 6.7061e-09 | au |
q | 2.030385842502367 | 7.002e-08 | au |
i | 3.344360087943387 | 2.9913e-06 | deg |
node | 117.7893389578216 | 5.835e-05 | deg |
peri | 79.63577957383359 | 6.006e-05 | deg |
M | 241.7374278611612 | 1.5609e-05 | deg |
tp | 2459613.955930192480 (2022-Feb-03.45593019) | 5.5358e-05 | TDB |
period | 1258.590373753681 3.45 | 5.5495e-06 1.519e-08 | d yr |
n | .286034286855634 | 1.2612e-09 | deg/d |
Q | 2.532300853110306 | 7.4438e-09 | au |
|
| | Orbit Determination Parameters
Additional Information
|